"Pseudo-MPEC" for C0FMX05

Created 2023 Jan 30 21:22:04 UT using Find_Orb

Click here for an explanation of pseudo-MPECs

 
 Astrometry: 
     C0FMX05* C2023 01 25H$'he-rxTTHQwPTC#UGq)6R(8l)HRYH3!g@teN(g%%3#uiJlr:yTV00
     C0FMX05  C2023 01 25,%F6YHBlpUn^OB##Jk\*/p-^91P1%O@2.fHB5Dh_y\wNX!+)lg3UV00
     C0FMX05  C2023 01 25]t9v_CbdM(P5HRW7vFQu\N#;O.xuveP3_CdxALbn.m]0E;B;SqQ[V00
     C0FMX05 mC2023 01 25uFe]x`3ckGh1/7=Wyd;//0Astrometrye+%redacted;r#0TRW?5V00
     C0FMX05 mC2023 01 25/YIsJpOm[*r!ZqeOZt_Fdr]tclickL5+EJ;%Mh)wqvX!y*V3UA6pV00
     C0FMX05 mC2023 01 25!6P?.3m5HSZLH_jiQa?0=r:s_herepo!`eVP;u^NCsPPTxmVB6.)V00
     C0FMX05 mC2023 01 25Vr(2Nh\CivbFLWuefor_r85HFk:HB*0:(CnT1+QT'mT.J*sc1x%XV00
     C0FMX05 KC2023 01 27.31284309 49 27.689+35 35 06.61   ~1R8M 20.89GVNEOCPI52
     C0FMX05 KC2023 01 27.31503309 49 25.727+35 35 06.36   ~1R8M 21.67GVNEOCPI52
     C0FMX05 KC2023 01 27.31722609 49 23.722+35 35 06.40   ~1R8M 21.72GVNEOCPI52
     C0FMX05 mC2023 01 30D%LlHVVNK^.nR=Y]Hg?BM@*\e\awAILCZ(K_@YSsPf0ySO;OV5UVV00
     C0FMX05 mC2023 01 30s8BVSs6explanationtCc=WEBfI9R5I+ByrU6'f/?b?M[VGXs?i;V00
     C0FMX05 mC2023 01 30+^=.wJwG/@0l/Fsu/m7O@s_A+X:uPVZ5MifQfga`gqRQqLL?/97nV00

Station data:
(I52) Steward Observatory, Mt. Lemmon Station  (N32.442544 W110.788920)
   US/Arizona.  Observers T. A. Pruyne, B. M. Africano, E. J. Christensen, G.
   A. Farneth, D. C. Fuls, A. R. Gibbs, A. D. Grauer, H. Gröller, J. A.
   Johnson, R. A. Kowalski, S. M. Larson, G. J. Leonard, D. Rankin, R. L.
   Seaman, F. C. Shelly, K. W. Wierzchoś. 1.0-m reflector + CCD.
(V00) Kitt Peak-Bok  (N31.963125 W111.600190)  US/Arizona.  Observers T. A.
   Pruyne, B. M. Africano, E. J. Christensen, G. A. Farneth, D. C. Fuls, A.
   R. Gibbs, A. D. Grauer, H. Gröller, J. A. Johnson, R. A. Kowalski, S. M.
   Larson, G. J. Leonard, D. Rankin, R. L. Seaman, F. C. Shelly, K. W.
   Wierzchoś. 2.25-m reflector + CCD.

Orbital elements:  C0FMX05
   Perihelion 2022 Nov 14.60725 +/- 0.0413 TT = 14:34:26 (JD 2459898.10725)
Epoch 2023 Jan 30.0 TT = JDT 2459974.5   Earth MOID: 0.0041   Ve: 0.0323
M  69.37075457 +/- 0.07             (J2000 ecliptic)             AutoNEOCP
n   0.90808033 +/- 0.000475         Peri.  274.69073 +/- 0.010
a   1.05613605 +/- 0.000368         Node   112.72441 +/- 0.0011
e   0.2838633 +/- 0.000722          Incl.    3.10035 +/- 0.007
P   1.09/396.43d           H 27.73  G  0.15   U  7.6
q 0.75633775 +/- 0.000499    Q 1.35593435 +/- 0.00123
From 13 observations 2023 Jan. 25-30; mean residual 0".19
Residuals in arcseconds: 
230125 V00  .18+  .07-    230125 V00  .05-  .23-    230130 V00  .24-  .06+    
230125 V00  .41-  .25+    230125 V00  .17+  .14-    230130 V00  .07+  .29-    
230125 V00  .17-  .05+    230127 I52  .10+  .02-    230130 V00  .20+  .03+    
230125 V00  .28+  .10-    230127 I52  .15+  .04+    
230125 V00  .03+  .11-    230127 I52  .29-  .41+    

Ephemerides (geocentric):
Date (UTC) HH   RA             Dec           delta  r     elong  mag " sig PA
---- --------  ------------   ------------  ------ ------ -----  --- --------
2023 01 30 21  09 15 56.123   +34 58 03.51  .05480 1.0373 161.8 22.5 .372  89
2023 01 30 22  09 15 39.854   +34 57 33.68  .05499 1.0375 161.8 22.5 .381  89
2023 01 30 23  09 15 23.703   +34 57 03.84  .05519 1.0377 161.9 22.5 .391  89
2023 01 31 00  09 15 07.669   +34 56 34.00  .05539 1.0379 161.9 22.5 .400  89
2023 01 31 01  09 14 51.750   +34 56 04.15  .05558 1.0381 161.9 22.5 .410  89
2023 01 31 02  09 14 35.946   +34 55 34.30  .05578 1.0383 161.9 22.5 .419  89
2023 01 31 03  09 14 20.255   +34 55 04.45  .05598 1.0385 162.0 22.5 .429  90
2023 01 31 04  09 14 04.677   +34 54 34.60  .05618 1.0387 162.0 22.5 .438  90
2023 01 31 05  09 13 49.210   +34 54 04.75  .05638 1.0389 162.0 22.5 .448  90
2023 01 31 06  09 13 33.853   +34 53 34.90  .05657 1.0391 162.0 22.5 .458  90
2023 01 31 07  09 13 18.604   +34 53 05.05  .05677 1.0393 162.1 22.5 .467  90
2023 01 31 08  09 13 03.464   +34 52 35.21  .05697 1.0395 162.1 22.5 .477  90
2023 01 31 09  09 12 48.430   +34 52 05.38  .05717 1.0397 162.1 22.5 .487  90
2023 01 31 10  09 12 33.503   +34 51 35.55  .05737 1.0399 162.1 22.6 .496  90
2023 01 31 11  09 12 18.680   +34 51 05.72  .05757 1.0401 162.1 22.6 .506  90
2023 01 31 12  09 12 03.960   +34 50 35.91  .05776 1.0403 162.2 22.6 .516  90
2023 01 31 13  09 11 49.344   +34 50 06.11  .05796 1.0405 162.2 22.6 .525  90
2023 01 31 14  09 11 34.829   +34 49 36.31  .05816 1.0407 162.2 22.6 .535  90
2023 01 31 15  09 11 20.415   +34 49 06.53  .05836 1.0409 162.2 22.6 .545  90
2023 01 31 16  09 11 06.101   +34 48 36.75  .05856 1.0411 162.2 22.6 .554  90
2023 01 31 17  09 10 51.886   +34 48 06.99  .05876 1.0413 162.2 22.6 .564  90
2023 01 31 18  09 10 37.768   +34 47 37.25  .05896 1.0415 162.2 22.6 .574  90
2023 01 31 19  09 10 23.748   +34 47 07.51  .05916 1.0417 162.3 22.6 .583  91
2023 01 31 20  09 10 09.824   +34 46 37.80  .05936 1.0419 162.3 22.6 .593  91
2023 01 31 21  09 09 55.994   +34 46 08.09  .05956 1.0421 162.3 22.6 .603  91
2023 01 31 22  09 09 42.260   +34 45 38.41  .05976 1.0423 162.3 22.6 .613  91
2023 01 31 23  09 09 28.618   +34 45 08.74  .05996 1.0425 162.3 22.6 .622  91
2023 02 01 00  09 09 15.069   +34 44 39.08  .06016 1.0427 162.3 22.7 .632  91
2023 02 01 01  09 09 01.612   +34 44 09.45  .06036 1.0429 162.3 22.7 .642  91
2023 02 01 02  09 08 48.246   +34 43 39.84  .06056 1.0431 162.3 22.7 .651  91
2023 02 01 03  09 08 34.969   +34 43 10.24  .06076 1.0433 162.4 22.7 .661  91
2023 02 01 04  09 08 21.782   +34 42 40.66  .06096 1.0435 162.4 22.7 .671  91
2023 02 01 05  09 08 08.683   +34 42 11.11  .06116 1.0437 162.4 22.7 .680  91
2023 02 01 06  09 07 55.672   +34 41 41.57  .06136 1.0439 162.4 22.7 .690  91
2023 02 01 07  09 07 42.747   +34 41 12.06  .06156 1.0441 162.4 22.7 .700  91
2023 02 01 08  09 07 29.908   +34 40 42.57  .06176 1.0443 162.4 22.7 .710  91
2023 02 01 09  09 07 17.155   +34 40 13.10  .06196 1.0445 162.4 22.7 .719  91
2023 02 01 10  09 07 04.486   +34 39 43.65  .06216 1.0447 162.4 22.7 .729  91
2023 02 01 11  09 06 51.900   +34 39 14.23  .06236 1.0449 162.4 22.7 .739  91
2023 02 01 12  09 06 39.397   +34 38 44.83  .06256 1.0451 162.4 22.7 .748  91
2023 02 01 13  09 06 26.977   +34 38 15.46  .06276 1.0453 162.4 22.7 .758  91
2023 02 01 14  09 06 14.638   +34 37 46.11  .06296 1.0455 162.4 22.8 .768  91
2023 02 01 15  09 06 02.379   +34 37 16.79  .06316 1.0457 162.4 22.8 .777  91
2023 02 01 16  09 05 50.200   +34 36 47.49  .06336 1.0459 162.4 22.8 .787  91
2023 02 01 17  09 05 38.101   +34 36 18.21  .06357 1.0461 162.5 22.8 .796  91
2023 02 01 18  09 05 26.080   +34 35 48.97  .06377 1.0463 162.5 22.8 .806  91
2023 02 01 19  09 05 14.138   +34 35 19.74  .06397 1.0465 162.5 22.8 .816  91
2023 02 01 20  09 05 02.272   +34 34 50.55  .06417 1.0467 162.5 22.8 .825  91